H1 CPF 2 NER 2023 11 29 9 333 01 glonass132 H2 1401201 9132 39620 2023 11 29 0 0 0 2023 12 2 23 45 0 900 1 1 0 0 0 1 H9 10 0 60277 0.00000 0 8645350.654 9813638.162 21932054.849 10 0 60277 900.00000 0 8461376.532 12432393.008 20640002.239 10 0 60277 1800.00000 0 8482445.461 14874412.382 18948481.287 10 0 60277 2700.00000 0 8680958.712 17077773.583 16890275.119 10 0 60277 3600.00000 0 9019009.500 18988443.467 14505229.779 10 0 60277 4500.00000 0 9450125.830 20562323.782 11839491.401 10 0 60277 5400.00000 0 9921384.101 21766896.496 8944624.329 10 0 60277 6300.00000 0 10375805.344 22582401.910 5876626.020 10 0 60277 7200.00000 0 10754934.135 23002501.305 2694856.619 10 0 60277 8100.00000 0 11001492.488 23034396.880 -539097.313 10 0 60277 9000.00000 0 11061997.606 22698403.937 -3762603.987 10 0 60277 9900.00000 0 10889233.510 22026992.783 -6913190.480 10 0 60277 10800.00000 0 10444472.194 21063339.809 -9929747.085 10 0 60277 11700.00000 0 9699350.035 19859447.588 -12753708.986 10 0 60277 12600.00000 0 8637319.092 18473911.944 -15330192.552 10 0 60277 13500.00000 0 7254610.403 16969428.831 -17609064.126 10 0 60277 14400.00000 0 5560666.457 15410144.980 -19545920.392 10 0 60277 15300.00000 0 3578022.079 13858963.087 -21102960.789 10 0 60277 16200.00000 0 1341635.944 12374914.531 -22249734.489 10 0 60277 17100.00000 0 -1102302.037 11010710.044 -22963746.639 10 0 60277 18000.00000 0 -3698040.089 9810571.610 -23230911.204 10 0 60277 18900.00000 0 -6382343.083 8808437.295 -23045840.604 10 0 60277 19800.00000 0 -9086895.098 8026615.172 -22411965.419 10 0 60277 20700.00000 0 -11740926.765 7474943.746 -21341480.746 10 0 60277 21600.00000 0 -14273958.273 7150494.892 -19855119.175 10 0 60277 22500.00000 0 -16618543.490 7037832.324 -17981753.895 10 0 60277 23400.00000 0 -18712900.021 7109814.838 -15757838.973 10 0 60277 24300.00000 0 -20503314.552 7328910.249 -13226697.337 10 0 60277 25200.00000 0 -21946221.918 7648963.803 -10437670.333 10 0 60277 26100.00000 0 -23009870.054 8017345.186 -7445145.923 10 0 60277 27000.00000 0 -23675500.555 8377381.735 -4307485.309 10 0 60277 27900.00000 0 -23937995.299 8670973.021 -1085870.159 10 0 60277 28800.00000 0 -23805962.505 8841274.114 2156905.547 10 0 60277 29700.00000 0 -23301259.783 8835331.937 5357673.858 10 0 60277 30600.00000 0 -22457975.864 8606561.370 8454135.645 10 0 60277 31500.00000 0 -21320915.883 8116954.961 11386082.189 10 0 60277 32400.00000 0 -19943656.113 7338931.908 14096570.736 10 0 60277 33300.00000 0 -18386252.034 6256747.821 16533030.596 10 0 60277 34200.00000 0 -16712697.873 4867405.860 18648278.219 10 0 60277 35100.00000 0 -14988245.492 3181031.260 20401422.087 10 0 60277 36000.00000 0 -13276695.684 1220694.093 21758640.914 10 0 60277 36900.00000 0 -11637775.235 -978311.745 22693821.457 10 0 60277 37800.00000 0 -10124708.612 -3369702.731 23189045.319 10 0 60277 38700.00000 0 -8782084.340 -5897901.451 23234917.063 10 0 60277 39600.00000 0 -7644103.229 -8500123.494 22830728.963 10 0 60277 40500.00000 0 -6733279.376 -11108769.361 21984460.676 10 0 60277 41400.00000 0 -6059645.893 -13654023.148 20712614.860 10 0 60277 42300.00000 0 -5620496.420 -16066551.529 19039892.594 10 0 60277 43200.00000 0 -5400671.449 -18280192.717 16998715.018 10 0 60277 44100.00000 0 -5373376.175 -20234525.590 14628600.123 10 0 60277 45000.00000 0 -5501494.842 -21877213.994 11975406.119 10 0 60277 45900.00000 0 -5739346.269 -23166030.348 9090454.983 10 0 60277 46800.00000 0 -6034807.019 -24070475.567 6029552.001 10 0 60277 47700.00000 0 -6331713.532 -24572928.654 2851919.048 10 0 60277 48600.00000 0 -6572442.816 -24669278.379 -380938.959 10 0 60277 49500.00000 0 -6700563.645 -24369010.597 -3606413.578 10 0 60277 50400.00000 0 -6663446.993 -23694747.092 -6761996.341 10 0 60277 51300.00000 0 -6414725.701 -22681254.420 -9786483.610 10 0 60277 52200.00000 0 -5916499.298 -21373963.274 -12621159.884 10 0 60277 53100.00000 0 -5141190.070 -19827059.252 -15210936.763 10 0 60277 54000.00000 0 -4072970.717 -18101223.949 -17505425.483 10 0 60277 54900.00000 0 -2708701.459 -16261120.087 -19459922.001 10 0 60277 55800.00000 0 -1058334.824 -14372725.293 -21036285.060 10 0 60277 56700.00000 0 855231.624 -12500625.809 -22203689.608 10 0 60277 57600.00000 0 2996851.179 -10705383.317 -22939240.237 10 0 60277 58500.00000 0 5320346.092 -9041085.365 -23228431.775 10 0 60277 59400.00000 0 7770199.258 -7553182.399 -23065447.128 10 0 60277 60300.00000 0 10283650.817 -6276702.623 -22453285.458 10 0 60277 61200.00000 0 12793113.397 -5234920.168 -21403717.107 10 0 60277 62100.00000 0 15228805.946 -4438533.077 -19937065.056 10 0 60277 63000.00000 0 17521496.269 -3885386.003 -18081816.249 10 0 60277 63900.00000 0 19605237.265 -3560749.438 -15874069.623 10 0 60277 64800.00000 0 21419981.614 -3438143.409 -13356831.237 10 0 60277 65700.00000 0 22913964.463 -3480670.207 -10579170.197 10 0 60277 66600.00000 0 24045753.181 -3642798.700 -7595252.307 10 0 60277 67500.00000 0 24785877.350 -3872523.177 -4463271.124 10 0 60277 68400.00000 0 25117970.078 -4113803.526 -1244298.485 10 0 60277 69300.00000 0 25039372.657 -4309181.268 1998921.536 10 0 60277 70200.00000 0 24561177.773 -4402458.567 5203210.115 10 0 60277 71100.00000 0 23707710.574 -4341324.793 8306196.850 10 0 60277 72000.00000 0 22515471.052 -4079817.786 11247542.977 10 0 60277 72900.00000 0 21031584.109 -3580514.522 13970119.733 10 0 60277 73800.00000 0 19311824.397 -2816357.902 16421118.365 10 0 60277 74700.00000 0 17418300.710 -1772042.373 18553070.118 10 0 60277 75600.00000 0 15416898.441 -444900.229 20324756.906 10 0 60277 76500.00000 0 13374588.090 1154748.181 21701996.040 10 0 60277 77400.00000 0 11356712.615 3003794.409 22658285.153 10 0 60277 78300.00000 0 9424366.391 5067083.087 23175296.563 10 0 60277 79200.00000 0 7631973.947 7298663.023 23243213.268 10 0 60277 80100.00000 0 6025167.631 9643495.981 22860901.727 10 0 60277 81000.00000 0 4639050.489 12039552.376 22035919.593 10 0 60277 81900.00000 0 3496914.316 14420207.507 20784359.302 10 0 60277 82800.00000 0 2609463.968 16716839.906 19130531.202 10 0 60277 83700.00000 0 1974578.128 18861525.267 17106492.541 10 0 60277 84600.00000 0 1577614.734 20789715.685 14751431.109 10 0 60277 85500.00000 0 1392247.021 22442794.397 12110914.822 10 0 60278 0.00000 0 1381794.414 23770401.157 9236021.037 10 0 60278 900.00000 0 1500992.255 24732433.283 6182359.711 10 0 60278 1800.00000 0 1698126.161 25300638.070 3009011.964 10 0 60278 2700.00000 0 1917441.749 25459732.902 -222601.695 10 0 60278 3600.00000 0 2101728.874 25208004.330 -3449898.915 10 0 60278 4500.00000 0 2194971.956 24557361.325 -6610338.350 10 0 60278 5400.00000 0 2144954.944 23532839.448 -9642624.963 10 0 60278 6300.00000 0 1905710.950 22171575.510 -12487894.885 10 0 60278 7200.00000 0 1439712.690 20521294.305 -15090857.044 10 0 60278 8100.00000 0 719710.259 18638369.422 -17400869.414 10 0 60278 9000.00000 0 -269862.792 16585537.981 -19372928.831 10 0 60278 9900.00000 0 -1531976.344 14429363.884 -20968554.687 10 0 60278 10800.00000 0 -3056624.444 12237554.881 -22156548.836 10 0 60278 11700.00000 0 -4820998.443 10076245.145 -22913616.180 10 0 60278 12600.00000 0 -6790207.968 8007356.872 -23224833.002 10 0 60278 13500.00000 0 -8918522.054 6086151.322 -23083952.951 10 0 60278 14400.00000 0 -11151080.635 4359072.112 -22493543.641 10 0 60278 15300.00000 0 -13426006.480 2861971.489 -21464950.090 10 0 60278 16200.00000 0 -15676830.283 1618794.375 -20018084.646 10 0 60278 17100.00000 0 -17835127.962 640775.697 -18181046.524 10 0 60278 18000.00000 0 -19833259.576 -73815.140 -15989577.653 10 0 60278 18900.00000 0 -21607094.534 -539372.150 -13486365.017 10 0 60278 19800.00000 0 -23098607.817 -782106.410 -10720203.043 10 0 60278 20700.00000 0 -24258237.116 -838692.251 -7745032.794 10 0 60278 21600.00000 0 -25046900.727 -754464.734 -4618877.528 10 0 60278 22500.00000 0 -25437590.506 -581246.553 -1402696.572 10 0 60278 23400.00000 0 -25416472.401 -374898.485 1840818.598 10 0 60278 24300.00000 0 -24983448.292 -192699.380 5048480.950 10 0 60278 25200.00000 0 -24152156.115 -90668.784 8157851.462 10 0 60278 26100.00000 0 -22949409.407 -120947.467 11108463.928 10 0 60278 27000.00000 0 -21414101.346 -329348.176 13843006.096 10 0 60278 27900.00000 0 -19595621.087 -753181.107 16308433.528 10 0 60278 28800.00000 0 -17551850.565 -1419446.369 18456994.428 10 0 60278 29700.00000 0 -15346827.221 -2343469.552 20247146.021 10 0 60278 30600.00000 0 -13048171.463 -3528037.403 21644345.739 10 0 60278 31500.00000 0 -10724386.832 -4963069.228 22621703.209 10 0 60278 32400.00000 0 -8442145.256 -6625837.075 23160482.161 10 0 60278 33300.00000 0 -6263669.575 -8481724.922 23250444.283 10 0 60278 34200.00000 0 -4244320.772 -10485494.776 22890030.063 10 0 60278 35100.00000 0 -2430488.233 -12583006.976 22086374.609 10 0 60278 36000.00000 0 -857868.411 -14713323.456 20855159.229 10 0 60278 36900.00000 0 449798.924 -16811107.297 19220302.307 10 0 60278 37800.00000 0 1481486.622 -18809219.879 17213495.661 10 0 60278 38700.00000 0 2239098.887 -20641409.022 14873595.056 10 0 60278 39600.00000 0 2737145.341 -22244977.674 12245876.047 10 0 60278 40500.00000 0 3001885.225 -23563323.433 9381168.563 10 0 60278 41400.00000 0 3069978.253 -24548244.269 6334885.811 10 0 60278 42300.00000 0 2986698.859 -25161915.062 3165965.120 10 0 60278 43200.00000 0 2803788.688 -25378452.876 -64260.035 10 0 60278 44100.00000 0 2577037.203 -25185005.484 -3293236.045 10 0 60278 45000.00000 0 2363691.823 -24582317.049 -6458391.343 10 0 60278 45900.00000 0 2219806.335 -23584746.389 -9498342.139 10 0 60278 46800.00000 0 2197639.228 -22219735.658 -12354078.817 10 0 60278 47700.00000 0 2343211.947 -20526750.230 -14970110.185 10 0 60278 48600.00000 0 2694130.692 -18555732.459 -17295543.386 10 0 60278 49500.00000 0 3277764.787 -16365132.395 -19285078.359 10 0 60278 50400.00000 0 4109860.037 -14019596.377 -20899897.105 10 0 60278 51300.00000 0 5193647.495 -11587408.879 -22108429.972 10 0 60278 52200.00000 0 6519487.530 -9137793.597 -22886983.344 10 0 60278 53100.00000 0 8065066.645 -6738185.989 -23220215.674 10 0 60278 54000.00000 0 9796141.281 -4451590.937 -23101451.602 10 0 60278 54900.00000 0 11667799.687 -2334136.006 -22532827.004 10 0 60278 55800.00000 0 13626190.812 -432922.843 -21525260.964 10 0 60278 56700.00000 0 15610649.113 1215733.033 -20098254.200 10 0 60278 57600.00000 0 17556126.977 2587600.036 -18279516.842 10 0 60278 58500.00000 0 19395832.832 3671311.290 -16104432.087 10 0 60278 59400.00000 0 21063963.847 4468595.732 -13615365.774 10 0 60278 60300.00000 0 22498417.527 4993950.371 -10860835.229 10 0 60278 61200.00000 0 23643367.049 5273768.431 -7894554.034 10 0 60278 62100.00000 0 24451590.700 5344961.649 -4774372.130 10 0 60278 63000.00000 0 24886456.204 5253136.746 -1561133.126 10 0 60278 63900.00000 0 24923475.473 5050405.376 1682527.379 10 0 60278 64800.00000 0 24551363.838 4792922.535 4893417.409 10 0 60278 65700.00000 0 23772559.279 4538259.969 8009032.433 10 0 60278 66600.00000 0 22603180.365 4342727.863 10968781.690 10 0 60278 67500.00000 0 21072425.798 4258759.878 13715172.024 10 0 60278 68400.00000 0 19221442.160 4332473.341 16194925.572 10 0 60278 69300.00000 0 17101708.908 4601508.295 18360009.407 10 0 60278 70200.00000 0 14773009.711 5093236.672 20168557.644 10 0 60278 71100.00000 0 12301076.074 5823416.627 21585669.075 10 0 60278 72000.00000 0 9755002.291 6795347.901 22584066.232 10 0 60278 72900.00000 0 7204539.504 7999562.759 23144604.822 10 0 60278 73800.00000 0 4717380.846 9414064.611 23256625.420 10 0 60278 74700.00000 0 2356549.294 11005103.639 22918142.348 10 0 60278 75600.00000 0 177994.940 12728456.688 22135867.556 10 0 60278 76500.00000 0 -1771500.791 14531158.085 20925070.182 10 0 60278 77400.00000 0 -3456029.318 16353609.691 19309275.194 10 0 60278 78300.00000 0 -4851799.112 18131983.113 17319807.150 10 0 60278 79200.00000 0 -5947870.467 19800815.133 14995187.649 10 0 60278 80100.00000 0 -6746352.153 21295689.501 12380397.491 10 0 60278 81000.00000 0 -7262053.255 22555894.513 9526016.862 10 0 60278 81900.00000 0 -7521605.764 23526946.722 6487259.018 10 0 60278 82800.00000 0 -7562095.152 24162876.179 3322914.965 10 0 60278 83700.00000 0 -7429256.466 24428178.209 94228.351 10 0 60278 84600.00000 0 -7175311.455 24299350.061 -3136278.746 10 0 60278 85500.00000 0 -6856537.308 23765947.635 -6306007.268 10 0 60279 0.00000 0 -6530668.951 22831117.173 -9353487.018 10 0 60279 900.00000 0 -6254243.856 21511577.694 -12219565.633 10 0 60279 1800.00000 0 -6080001.730 19837054.553 -14848553.757 10 0 60279 2700.00000 0 -6054448.392 17849184.311 -17189309.703 10 0 60279 3600.00000 0 -6215687.771 15599935.925 -19196238.261 10 0 60279 4500.00000 0 -6591614.396 13149612.042 -20830185.532 10 0 60279 5400.00000 0 -7198544.185 10564512.321 -22059211.585 10 0 60279 6300.00000 0 -8040343.138 7914355.031 -22859225.251 10 0 60279 7200.00000 0 -9108092.789 5269563.605 -23214467.811 10 0 60279 8100.00000 0 -10380308.763 2698530.801 -23117835.233 10 0 60279 9000.00000 0 -11823705.459 264974.403 -22571031.584 10 0 60279 9900.00000 0 -13394476.627 -1974505.048 -21584549.527 10 0 60279 10800.00000 0 -15040039.585 -3972562.222 -20177477.199 10 0 60279 11700.00000 0 -16701170.768 -5692850.946 -18377134.231 10 0 60279 12600.00000 0 -18314443.232 -7111300.837 -16218543.269 10 0 60279 13500.00000 0 -19814863.426 -8216873.090 -13743746.823 10 0 60279 14400.00000 0 -21138595.544 -9011763.980 -11000982.662 10 0 60279 15300.00000 0 -22225657.600 -9511048.264 -8043734.239 10 0 60279 16200.00000 0 -23022474.273 -9741778.747 -4929675.415 10 0 60279 17100.00000 0 -23484177.517 -9741581.676 -1719531.257 10 0 60279 18000.00000 0 -23576556.698 -9556809.381 1524121.374 10 0 60279 18900.00000 0 -23277575.138 -9240330.589 4738088.412 10 0 60279 19800.00000 0 -22578388.756 -8849054.290 7859802.658 10 0 60279 20700.00000 0 -21483823.969 -8441294.187 10828551.575 10 0 60279 21600.00000 0 -20012295.391 -8074087.201 13586663.783 10 0 60279 22500.00000 0 -18195167.773 -7800580.863 16080630.491 10 0 60279 23400.00000 0 -16075590.223 -7667600.864 18262139.900 10 0 60279 24300.00000 0 -13706852.841 -7713501.678 20089004.948 10 0 60279 25200.00000 0 -11150335.565 -7966390.532 21525967.339 10 0 60279 26100.00000 0 -8473135.628 -8442798.704 22545363.630 10 0 60279 27000.00000 0 -5745472.664 -9146854.920 23127642.180 10 0 60279 27900.00000 0 -3037979.025 -10069994.375 23261722.685 10 0 60279 28800.00000 0 -418986.914 -11191214.541 22945193.112 10 0 60279 29700.00000 0 2048076.657 -12477866.248 22184341.680 10 0 60279 30600.00000 0 4307081.040 -13886946.610 20994024.439 10 0 60279 31500.00000 0 6311272.309 -15366839.803 19397371.693 10 0 60279 32400.00000 0 8024958.907 -16859433.520 17425339.197 10 0 60279 33300.00000 0 9424734.884 -18302523.592 15116112.543 10 0 60279 34200.00000 0 10500191.907 -19632407.445 12514375.650 10 0 60279 35100.00000 0 11254092.091 -20786559.281 9670456.573 10 0 60279 36000.00000 0 11701995.711 -21706276.312 6639365.987 10 0 60279 36900.00000 0 11871360.074 -22339186.278 3479745.775 10 0 60279 37800.00000 0 11800147.631 -22641511.895 252746.834 10 0 60279 38700.00000 0 11535001.620 -22579997.526 -2979143.241 10 0 60279 39600.00000 0 11129065.534 -22133416.951 -6153300.829 10 0 60279 40500.00000 0 10639537.683 -21293598.193 -9208172.708 10 0 60279 41400.00000 0 10125063.315 -20065921.020 -12084465.392 10 0 60279 42300.00000 0 9643073.885 -18469264.579 -14726294.481 10 0 60279 43200.00000 0 9247185.580 -16535405.258 -17082271.813 10 0 60279 44100.00000 0 8984767.045 -14307887.835 -19106509.133 10 0 60279 45000.00000 0 8894779.574 -11840414.950 -20759518.420 10 0 60279 45900.00000 0 9005981.881 -9194820.161 -22008990.876 10 0 60279 46800.00000 0 9335576.554 -6438707.475 -22830438.758 10 0 60279 47700.00000 0 9888356.975 -3642854.462 -23207686.709 10 0 60279 48600.00000 0 10656392.522 -878486.290 -23133202.083 10 0 60279 49500.00000 0 11619267.275 1785466.221 -22608256.766 10 0 60279 50400.00000 0 12744863.971 4285010.279 -21642916.208 10 0 60279 51300.00000 0 13990661.742 6563526.122 -20255854.790 10 0 60279 52200.00000 0 15305494.090 8573891.321 -18474000.131 10 0 60279 53100.00000 0 16631693.612 10280205.175 -16332012.477 10 0 60279 54000.00000 0 17907533.096 11659040.787 -13871608.847 10 0 60279 54900.00000 0 19069859.532 12700172.374 -11140745.002 10 0 60279 55800.00000 0 20056808.848 13406747.657 -8192671.541 10 0 60279 56700.00000 0 20810485.486 13794899.027 -5084883.304 10 0 60279 57600.00000 0 21279492.132 13892811.304 -1877983.721 10 0 60279 58500.00000 0 21421201.366 13739287.262 1365512.235 10 0 60279 59400.00000 0 21203672.041 13381873.753 4582411.517 10 0 60279 60300.00000 0 20607128.745 12874630.005 7710087.218 10 0 60279 61200.00000 0 19624941.541 12275634.820 10687707.768 10 0 60279 62100.00000 0 18264064.899 11644340.209 13457426.020 10 0 60279 63000.00000 0 16544917.931 11038885.001 15965504.412 10 0 60279 63900.00000 0 14500711.878 10513483.027 18163354.124 10 0 60279 64800.00000 0 12176254.111 10115996.579 20008468.449 10 0 60279 65700.00000 0 9626279.661 9885797.238 21465233.240 10 0 60279 66600.00000 0 6913380.744 9852003.385 22505600.021 10 0 60279 67500.00000 0 4105620.886 10032167.320 23109610.409 10 0 60279 68400.00000 0 1273932.711 10431465.704 23265763.499 10 0 60279 69300.00000 0 -1510593.258 11042425.858 22971220.786 10 0 60279 70200.00000 0 -4179417.602 11845198.126 22231846.232 10 0 60279 71100.00000 0 -6669148.296 12808361.987 21062081.827 10 0 60279 72000.00000 0 -8923918.745 13890231.735 19484661.812 10 0 60279 72900.00000 0 -10897451.266 15040607.106 17530171.324 10 0 60279 73800.00000 0 -12554722.683 16202896.128 15236457.782 10 0 60279 74700.00000 0 -13873164.931 17316522.175 12647905.799 10 0 60279 75600.00000 0 -14843352.528 18319515.559 9814588.684 10 0 60279 76500.00000 0 -15469149.661 19151182.218 6791311.820 10 0 60279 77400.00000 0 -15767311.627 19754738.676 3636565.213 10 0 60279 78300.00000 0 -15766557.782 20079803.510 411404.284 10 0 60279 79200.00000 0 -15506154.869 20084641.122 -2821720.564 10 0 60279 80100.00000 0 -15034069.854 19738063.470 -6000163.772 10 0 60279 81000.00000 0 -14404769.429 19020909.242 -9062291.374 10 0 60279 81900.00000 0 -13676758.129 17927037.139 -11948671.722 10 0 60279 82800.00000 0 -12909958.199 16463789.892 -14603227.341 10 0 60279 83700.00000 0 -12163041.212 14651907.485 -16974325.625 10 0 60279 84600.00000 0 -11490823.776 12524890.863 -19015787.061 10 0 60279 85500.00000 0 -10941837.319 10127840.345 -20687791.033 10 0 60280 0.00000 0 -10556174.982 7515815.199 -21957661.026 10 0 60280 900.00000 0 -10363707.133 4751779.262 -22800513.906 10 0 60280 1800.00000 0 -10382742.408 1904220.113 -23199758.192 10 0 60280 2700.00000 0 -10619191.496 -955464.973 -23147432.940 10 0 60280 3600.00000 0 -11066271.022 -3755704.792 -22644377.803 10 0 60280 4500.00000 0 -11704761.324 -6427499.422 -21700230.567 10 0 60280 5400.00000 0 -12503808.680 -8907060.253 -20333251.000 10 0 60280 6300.00000 0 -13422239.201 -11138234.383 -18569973.431 10 0 60280 7200.00000 0 -14410329.587 -13074611.684 -16444694.043 10 0 60280 8100.00000 0 -15411960.122 -14681225.970 -13998802.374 10 0 60280 9000.00000 0 -16367058.553 -15935778.792 -11279969.911 10 0 60280 9900.00000 0 -17214230.669 -16829334.561 -8341211.950 10 0 60280 10800.00000 0 -17893465.064 -17366458.326 -5239841.721 10 0 60280 11700.00000 0 -18348796.155 -17564791.466 -2036338.359 10 0 60280 12600.00000 0 -18530811.230 -17454084.701 1206847.758 10 0 60280 13500.00000 0 -18398894.034 -17074731.232 4426527.338 10 0 60280 14400.00000 0 -17923108.893 -16475864.181 7560016.514 10 0 60280 15300.00000 0 -17085645.088 -15713101.098 10546367.411 10 0 60280 16200.00000 0 -15881760.256 -14846033.063 13327559.792 10 0 60280 17100.00000 0 -14320183.311 -13935566.309 15849629.872 10 0 60280 18000.00000 0 -12422960.511 -13041229.995 18063714.160 10 0 60280 18900.00000 0 -10224751.961 -12218564.394 19926988.401 10 0 60280 19800.00000 0 -7771608.848 -11516699.544 21403484.356 10 0 60280 20700.00000 0 -5119283.266 -10976225.675 22464769.888 10 0 60280 21600.00000 0 -2331141.503 -10627443.695 23090480.855 10 0 60280 22500.00000 0 524232.398 -10489067.641 23268696.302 10 0 60280 23400.00000 0 3375643.743 -10567431.781 22996151.422 10 0 60280 24300.00000 0 6151997.854 -10856233.900 22278285.694 10 0 60280 25200.00000 0 8785003.470 -11336824.086 21129126.475 10 0 60280 26100.00000 0 11211758.703 -11979025.872 19571011.020 10 0 60280 27000.00000 0 13377114.506 -12742454.816 17634152.597 10 0 60280 27900.00000 0 15235719.823 -13578279.247 15356058.858 10 0 60280 28800.00000 0 16753665.542 -14431349.845 12780813.159 10 0 60280 29700.00000 0 17909660.767 -15242609.542 9958231.763 10 0 60280 30600.00000 0 18695693.847 -15951683.656 6942912.121 10 0 60280 31500.00000 0 19117151.609 -16499542.509 3793189.429 10 0 60280 32400.00000 0 19192392.357 -16831125.547 570020.458 10 0 60280 33300.00000 0 18951790.628 -16897817.218 -2664184.858 10 0 60280 34200.00000 0 18436293.454 -16659670.604 -5846762.351 10 0 60280 35100.00000 0 17695548.236 -16087284.882 -8916000.531 10 0 60280 36000.00000 0 16785680.172 -15163256.700 -11812332.656 10 0 60280 36900.00000 0 15766812.014 -13883142.932 -14479491.008 10 0 60280 37800.00000 0 14700429.904 -12255892.402 -16865601.098 10 0 60280 38700.00000 0 13646705.705 -10303726.092 -18924194.401 10 0 60280 39600.00000 0 12661888.463 -8061468.300 -20615119.598 10 0 60280 40500.00000 0 11795874.954 -5575354.121 -21905334.149 10 0 60280 41400.00000 0 11090062.111 -2901360.621 -22769560.147 10 0 60280 42300.00000 0 10575572.560 -103129.194 -23190790.865 10 0 60280 43200.00000 0 10271929.013 2750436.007 -23160637.215 10 0 60280 44100.00000 0 10186234.538 5587794.757 -22679506.304 10 0 60280 45000.00000 0 10312894.471 8337513.809 -21756607.497 10 0 60280 45900.00000 0 10633892.796 10931012.225 -20409784.775 10 0 60280 46800.00000 0 11119612.259 13305194.345 -18665177.615 10 0 60280 47700.00000 0 11730164.114 15404859.980 -16556716.218 10 0 60280 48600.00000 0 12417171.478 17184790.518 -14125460.382 10 0 60280 49500.00000 0 13125930.487 18611423.115 -11418794.754 10 0 60280 50400.00000 0 13797857.019 19664042.456 -8489496.476 10 0 60280 51300.00000 0 14373114.115 20335440.169 -5394694.107 10 0 60280 52200.00000 0 14793307.306 20632014.746 -2194739.256 10 0 60280 53100.00000 0 15004131.986 20573308.890 1047985.580 10 0 60280 54000.00000 0 14957859.109 20191005.427 4270298.105 10 0 60280 54900.00000 0 14615552.539 19527426.156 7409460.596 10 0 60280 55800.00000 0 13948923.255 18633599.255 10404411.737 10 0 60280 56700.00000 0 12941741.436 17566979.043 13196960.771 10 0 60280 57600.00000 0 11590746.731 16388916.377 15732919.944 10 0 60280 58500.00000 0 9906018.648 15161987.957 17963153.005 10 0 60280 59400.00000 0 7910792.074 13947298.077 19844519.725 10 0 60280 60300.00000 0 5640726.344 12801866.710 21340699.023 10 0 60280 61200.00000 0 3142659.161 11776213.337 22422876.025 10 0 60280 62100.00000 0 472897.814 10912236.909 23070281.414 10 0 60280 63000.00000 0 -2304881.021 10241479.312 23270574.412 10 0 60280 63900.00000 0 -5122035.864 9783843.170 23020063.735 10 0 60280 64800.00000 0 -7907570.414 9546815.694 22323763.793 10 0 60280 65700.00000 0 -10590841.975 9525229.135 21195286.272 10 0 60280 66600.00000 0 -13104257.676 9701566.274 19656569.954 10 0 60280 67500.00000 0 -15385848.684 10046797.003 17737454.316 10 0 60280 68400.00000 0 -17381617.683 10521710.310 15475104.956 10 0 60280 69300.00000 0 -19047564.166 11078685.759 12913301.377 10 0 60280 70200.00000 0 -20351305.152 11663830.502 10101600.009 10 0 60280 71100.00000 0 -21273225.348 12219392.817 7094387.472 10 0 60280 72000.00000 0 -21807109.841 12686351.610 3949841.247 10 0 60280 72900.00000 0 -21960233.470 13007073.878 728816.597 10 0 60280 73800.00000 0 -21752903.308 13127928.958 -2506319.788 10 0 60280 74700.00000 0 -21217473.101 13001749.844 -5692887.781 10 0 60280 75600.00000 0 -20396870.439 12590037.785 -8769100.916 10 0 60280 76500.00000 0 -19342697.676 11864816.679 -11675259.752 10 0 60280 77400.00000 0 -18112985.497 10810057.952 -14354908.564 10 0 60280 78300.00000 0 -16769692.705 9422614.249 -16755932.991 10 0 60280 79200.00000 0 -15376056.615 7712620.440 -18831577.249 10 0 60280 80100.00000 0 -13993904.984 5703342.613 -20541360.764 10 0 60280 81000.00000 0 -12681042.291 3430478.623 -21851875.991 10 0 60280 81900.00000 0 -11488820.339 940936.772 -22737451.231 10 0 60280 82800.00000 0 -10459995.746 -1708858.821 -23180664.779 10 0 60280 83700.00000 0 -9626965.063 -4455067.570 -23172699.419 10 0 60280 84600.00000 0 -9010452.566 -7228850.602 -22713529.370 10 0 60280 85500.00000 0 -8618706.866 -9959008.015 -21811934.859 99